This is the latest recevied weather packets stored in our database for station/object OK3MS-5. If no packets are shown the sender has not sent any weather packets the latest 10 day(s).
| Time | Temp. | Humidity | Pressure | Rain* | Wind** | Luminosity | Snow |
|---|---|---|---|---|---|---|---|
| 1777515306 | -2.22° C | 74% | 1031.8 hPa | 0 mm | - | 0 W/m² | - |
| 1777515003 | -1.67° C | 72% | 1032 hPa | 0 mm | - | 0 W/m² | - |
| 1777514702 | -2.22° C | 77% | 1031.9 hPa | 0 mm | - | 0 W/m² | - |
| 1777514402 | -2.22° C | 79% | 1032 hPa | 0 mm | - | 0 W/m² | - |
| 1777514110 | -1.67° C | 75% | 1032 hPa | 0 mm | - | 0 W/m² | - |
| 1777513804 | -1.67° C | 75% | 1031.9 hPa | 0 mm | - | 0 W/m² | - |
| 1777513512 | -1.67° C | 72% | 1031.8 hPa | 0 mm | - | 0 W/m² | - |
| 1777513203 | -1.67° C | 71% | 1031.8 hPa | 0 mm | - | 0 W/m² | - |
| 1777512910 | -1.67° C | 73% | 1032 hPa | 0 mm | - | 0 W/m² | - |
| 1777512605 | -2.22° C | 76% | 1031.9 hPa | 0 mm | - | 0 W/m² | - |
| 1777512309 | -1.67° C | 76% | 1032 hPa | 0 mm | - | 0 W/m² | - |
| 1777512005 | -1.67° C | 73% | 1031.9 hPa | 0 mm | - | 0 W/m² | - |
| 1777511709 | -1.67° C | 74% | 1031.9 hPa | 0 mm | - | 0 W/m² | - |
| 1777511402 | -1.67° C | 76% | 1031.9 hPa | 0 mm | - | 0 W/m² | - |
| 1777511104 | -1.67° C | 75% | 1031.7 hPa | 0 mm | - | 0 W/m² | - |
| 1777510803 | -1.67° C | 71% | 1031.7 hPa | 0 mm | - | 0 W/m² | - |
| 1777510503 | -1.11° C | 66% | 1031.7 hPa | 0 mm | - | 0 W/m² | - |
| 1777510202 | -1.11° C | 70% | 1031.6 hPa | 0 mm | - | 0 W/m² | - |
| 1777509911 | -1.11° C | 70% | 1031.7 hPa | 0 mm | - | 0 W/m² | - |
| 1777509602 | -1.67° C | 71% | 1031.7 hPa | 0 mm | - | 0 W/m² | - |
| 1777509308 | -1.67° C | 75% | 1031.7 hPa | 0 mm | - | 0 W/m² | - |
| 1777509002 | -1.67° C | 76% | 1031.7 hPa | 0 mm | - | 0 W/m² | - |
| 1777508704 | -1.11° C | 73% | 1031.8 hPa | 0 mm | - | 0 W/m² | - |
| 1777508411 | -1.11° C | 74% | 1031.7 hPa | 0 mm | - | 0 W/m² | - |
| 1777508102 | -1.11° C | 73% | 1031.6 hPa | 0 mm | - | 0 W/m² | - |
* Rain latest hour (hover to see other rain measurements)
** Current wind speed in m/s (hover to see current wind gust speed)